Tracking 29493 objects as of 9-Sep-2024
HD Live streaming from Space Station
objects crossing your sky now

STARLINK-5636

Track STARLINK-5636 now!
10-day predictions
STARLINK-5636 is classified as:


NORAD ID: 55454
Int'l Code: 2023-015F
Perigee: 565.2 km
Apogee: 567.2 km
Inclination: 43.0 °
Period: 95.8 minutes
Semi major axis: 6937 km
RCS: Unknown
Launch date: February 2, 2023
Source: United States (US)
Launch site: AIR FORCE EASTERN TEST RANGE (AFETR)
Your satellite tracking list
Your tracking list is empty




NASA's NSSDC Master Catalog

Two Line Element Set (TLE):
1 55454U 23015F   24252.85635678  .00000440  00000-0  47609-4 0  9995
2 55454  43.0041  57.5301 0001420 283.0856  76.9828 15.02551294 88490
Source of the keplerian elements: AFSPC